This is the latest recevied weather packets stored in our database for station/object SP1BMW-13. If no packets are shown the sender has not sent any weather packets the latest 10 day(s).
| Time | Temp. | Humidity | Pressure | Rain* | Wind** | Luminosity | Snow |
|---|---|---|---|---|---|---|---|
| 1787740033 | 23.33° C | 52% | 1021.8 hPa | 0 mm | 1.34 m/s, 35° | 665 W/m² | - |
| 1787739974 | 23.33° C | 52% | 1021.7 hPa | 0 mm | 2.24 m/s, 22° | 658 W/m² | - |
| 1787739913 | 23.33° C | 52% | 1021.7 hPa | 0 mm | 0.89 m/s, 31° | 652 W/m² | - |
| 1787739853 | 23.33° C | 52% | 1021.7 hPa | 0 mm | 1.34 m/s, 31° | 654 W/m² | - |
| 1787739793 | 23.33° C | 50% | 1021.8 hPa | 0 mm | 1.79 m/s, 41° | 657 W/m² | - |
| 1787739733 | 23.33° C | 51% | 1021.8 hPa | 0 mm | 0.89 m/s, 24° | 675 W/m² | - |
| 1787739673 | 23.33° C | 50% | 1021.5 hPa | 0 mm | 2.68 m/s, 35° | 207 W/m² | - |
| 1787739613 | 23.33° C | 50% | 1021.6 hPa | 0 mm | 2.68 m/s, 55° | 678 W/m² | - |
| 1787739553 | 23.33° C | 52% | 1021.6 hPa | 0 mm | 0.45 m/s, 90° | 599 W/m² | - |
| 1787739493 | 23.33° C | 52% | 1021.7 hPa | 0 mm | 0.89 m/s, 332° | 660 W/m² | - |
| 1787739433 | 23.33° C | 51% | 1021.7 hPa | 0 mm | 1.34 m/s, 45° | 636 W/m² | - |
| 1787739373 | 23.33° C | 52% | 1021.7 hPa | 0 mm | 1.34 m/s, 54° | 635 W/m² | - |
| 1787739313 | 23.33° C | 51% | 1021.5 hPa | 0 mm | 2.68 m/s, 63° | 629 W/m² | - |
| 1787739253 | 23.33° C | 51% | 1021.8 hPa | 0 mm | 0.89 m/s, 16° | 635 W/m² | - |
| 1787739193 | 23.89° C | 51% | 1021.8 hPa | 0 mm | 2.68 m/s, 68° | 635 W/m² | - |
| 1787739133 | 23.89° C | 48% | 1021.7 hPa | 0 mm | 0.89 m/s, 23° | 618 W/m² | - |
| 1787739073 | 23.33° C | 51% | 1021.7 hPa | 0 mm | 0.89 m/s, 24° | 620 W/m² | - |
| 1787739013 | 23.33° C | 51% | 1021.5 hPa | 0 mm | 0.45 m/s, 125° | 604 W/m² | - |
| 1787738953 | 23.33° C | 49% | 1021.7 hPa | 0 mm | 0.89 m/s, 150° | 626 W/m² | - |
| 1787738893 | 23.33° C | 50% | 1021.7 hPa | 0 mm | 1.34 m/s, 62° | 620 W/m² | - |
| 1787738833 | 23.33° C | 51% | 1021.7 hPa | 0 mm | 1.79 m/s, 111° | 616 W/m² | - |
| 1787738773 | 23.33° C | 50% | 1021.9 hPa | 0 mm | 1.79 m/s, 359° | 627 W/m² | - |
| 1787738713 | 23.33° C | 51% | 1021.8 hPa | 0 mm | 0.45 m/s, 73° | 633 W/m² | - |
| 1787738653 | 23.33° C | 52% | 1022 hPa | 0 mm | 1.34 m/s, 35° | 629 W/m² | - |
| 1787738593 | 23.33° C | 52% | 1021.7 hPa | 0 mm | 0.45 m/s, 44° | 621 W/m² | - |
* Rain latest hour (hover to see other rain measurements)
** Current wind speed in m/s (hover to see current wind gust speed)